• In Uzbekistan
  • List of Countries
  • For 7 days
  • Water Temperature
  • Satellite Maps
  • Weather Map
  • Weather Widgets
  • user-avatar
    Login

    Hourly Weather Ordino

    Today, 19 August, Sunday

    Time Temperature Precipitation Wind Pressure Humidity
    00:00 +10°C° 0 mm 2 mps 638 mmHg 82%
    01:00 +10°C° 0 mm 2 mps 638 mmHg 82%
    02:00 +10°C° 0 mm 2 mps 637 mmHg 82%
    03:00 +10°C° 0 mm 2 mps 637 mmHg 82%
    04:00 +10°C° 0 mm 2 mps 637 mmHg 82%
    05:00 +10°C° 0 mm 2 mps 638 mmHg 81%
    06:00 +10°C° 0 mm 2 mps 638 mmHg 81%
    07:00 +14°C° 0 mm 2 mps 639 mmHg 71%
    08:00 +16°C° 0 mm 2 mps 640 mmHg 62%
    09:00 +19°C° 0 mm 2 mps 641 mmHg 52%
    10:00 +20°C° 0 mm 2 mps 641 mmHg 49%
    11:00 +21°C° 0 mm 2 mps 641 mmHg 45%
    12:00 +23°C° 0 mm 2 mps 641 mmHg 41%
    13:00 +23°C° 0 mm 2 mps 641 mmHg 42%
    14:00 +23°C° 0 mm 2 mps 641 mmHg 43%
    15:00 +23°C° 0 mm 2 mps 641 mmHg 44%
    16:00 +21°C° 0.1 mm 2 mps 640 mmHg 51%
    17:00 +20°C° 0.1 mm 1 mps 640 mmHg 57%
    18:00 +19°C° 0.1 mm 1 mps 639 mmHg 64%
    19:00 +16°C° 0 mm 2 mps 639 mmHg 68%
    20:00 +15°C° 0 mm 2 mps 638 mmHg 72%
    21:00 +13°C° 0 mm 2 mps 638 mmHg 76%
    22:00 +13°C° 0 mm 2 mps 638 mmHg 76%
    23:00 +12°C° 0 mm 2 mps 638 mmHg 76%

    Tomorrow, 20 August, Monday

    Time Temperature Precipitation Wind Pressure Humidity
    00:00 +12°C° 0 mm 2 mps 638 mmHg 76%
    01:00 +12°C° 0 mm 2 mps 637 mmHg 72%
    02:00 +12°C° 0 mm 2 mps 637 mmHg 69%
    03:00 +10°C° 0 mm 2 mps 637 mmHg 66%
    04:00 +10°C° 0 mm 2 mps 637 mmHg 66%
    05:00 +12°C° 0 mm 2 mps 637 mmHg 66%
    06:00 +12°C° 0 mm 2 mps 637 mmHg 66%
    07:00 +14°C° 0 mm 2 mps 639 mmHg 59%
    08:00 +17°C° 0 mm 2 mps 640 mmHg 52%
    09:00 +20°C° 0 mm 2 mps 641 mmHg 44%
    10:00 +21°C° 0 mm 2 mps 641 mmHg 42%
    11:00 +23°C° 0 mm 2 mps 641 mmHg 40%
    12:00 +24°C° 0 mm 2 mps 641 mmHg 37%
    13:00 +24°C° 0 mm 2 mps 641 mmHg 38%
    14:00 +24°C° 0 mm 2 mps 640 mmHg 38%
    15:00 +24°C° 0 mm 2 mps 640 mmHg 39%
    16:00 +23°C° 0.1 mm 2 mps 639 mmHg 46%
    17:00 +20°C° 0.1 mm 2 mps 639 mmHg 53%
    18:00 +19°C° 0.1 mm 2 mps 638 mmHg 60%
    19:00 +17°C° 0 mm 2 mps 638 mmHg 64%
    20:00 +16°C° 0 mm 2 mps 638 mmHg 69%
    21:00 +14°C° 0 mm 2 mps 637 mmHg 73%
    22:00 +14°C° 0 mm 2 mps 637 mmHg 72%
    23:00 +14°C° 0 mm 2 mps 637 mmHg 72%

    Day after tomorrow, 21 August, Tuesday

    Time Temperature Precipitation Wind Pressure Humidity
    00:00 +13°C° 0 mm 2 mps 637 mmHg 71%
    01:00 +13°C° 0 mm 2 mps 637 mmHg 70%
    02:00 +13°C° 0 mm 2 mps 637 mmHg 70%
    03:00 +13°C° 0 mm 1 mps 636 mmHg 69%
    04:00 +13°C° 0 mm 1 mps 637 mmHg 68%
    05:00 +13°C° 0 mm 1 mps 637 mmHg 68%
    06:00 +13°C° 0 mm 1 mps 637 mmHg 68%
    07:00 +16°C° 0 mm 1 mps 638 mmHg 60%
    08:00 +20°C° 0 mm 1 mps 639 mmHg 52%
    09:00 +23°C° 0 mm 1 mps 640 mmHg 44%
    10:00 +23°C° 0 mm 1 mps 640 mmHg 42%
    11:00 +24°C° 0 mm 1 mps 640 mmHg 41%
    12:00 +25°C° 0 mm 1 mps 640 mmHg 39%
    13:00 +25°C° 0.2 mm 1 mps 640 mmHg 43%
    14:00 +24°C° 0.2 mm 1 mps 639 mmHg 46%
    15:00 +24°C° 0.2 mm 1 mps 639 mmHg 49%
    16:00 +23°C° 0.3 mm 1 mps 638 mmHg 54%
    17:00 +22°C° 0.3 mm 1 mps 638 mmHg 59%
    18:00 +21°C° 0.3 mm 1 mps 637 mmHg 64%
    19:00 +19°C° 0.1 mm 1 mps 637 mmHg 67%
    20:00 +18°C° 0.1 mm 1 mps 637 mmHg 71%
    21:00 +15°C° 0.1 mm 1 mps 637 mmHg 75%
    22:00 +15°C° 0 mm 1 mps 637 mmHg 76%
    23:00 +15°C° 0 mm 1 mps 637 mmHg 76%

    22 August, Wednesday

    Time Temperature Precipitation Wind Pressure Humidity
    00:00 +14°C° 0 mm 1 mps 636 mmHg 77%
    01:00 +14°C° 0 mm 1 mps 636 mmHg 77%
    02:00 +14°C° 0 mm 1 mps 636 mmHg 76%
    03:00 +14°C° 0 mm 1 mps 636 mmHg 76%
    04:00 +14°C° 0 mm 1 mps 636 mmHg 75%
    05:00 +14°C° 0 mm 1 mps 636 mmHg 75%
    06:00 +14°C° 0 mm 1 mps 636 mmHg 74%
    07:00 +18°C° 0 mm 1 mps 637 mmHg 66%
    08:00 +20°C° 0 mm 1 mps 639 mmHg 58%
    09:00 +23°C° 0 mm 1 mps 640 mmHg 49%
    10:00 +24°C° 0.5 mm 1 mps 640 mmHg 47%
    11:00 +25°C° 0.5 mm 1 mps 640 mmHg 45%
    12:00 +26°C° 0.5 mm 1 mps 640 mmHg 43%
    13:00 +25°C° 1.2 mm 1 mps 640 mmHg 44%
    14:00 +25°C° 1.2 mm 1 mps 639 mmHg 44%
    15:00 +25°C° 1.2 mm 1 mps 639 mmHg 45%
    16:00 +23°C° 0.9 mm 1 mps 638 mmHg 51%
    17:00 +22°C° 0.9 mm 1 mps 638 mmHg 56%
    18:00 +21°C° 0.9 mm 1 mps 637 mmHg 62%
    19:00 +19°C° 0.2 mm 1 mps 637 mmHg 64%
    20:00 +18°C° 0.2 mm 1 mps 637 mmHg 67%
    21:00 +16°C° 0.2 mm 1 mps 637 mmHg 69%
    22:00 +16°C° 0.3 mm 1 mps 637 mmHg 69%
    23:00 +15°C° 0.3 mm 1 mps 637 mmHg 70%

    23 August, Thursday

    Time Temperature Precipitation Wind Pressure Humidity
    00:00 +15°C° 0.3 mm 1 mps 637 mmHg 71%
    01:00 +15°C° 0.2 mm 1 mps 636 mmHg 71%
    02:00 +15°C° 0.2 mm 1 mps 636 mmHg 71%
    03:00 +14°C° 0.2 mm 1 mps 636 mmHg 71%
    04:00 +14°C° 0 mm 1 mps 636 mmHg 71%
    05:00 +14°C° 0 mm 1 mps 636 mmHg 71%
    06:00 +14°C° 0 mm 1 mps 636 mmHg 71%
    07:00 +18°C° 0 mm 1 mps 637 mmHg 63%
    08:00 +21°C° 0 mm 1 mps 638 mmHg 54%
    09:00 +23°C° 0 mm 1 mps 639 mmHg 45%
    10:00 +24°C° 0.2 mm 1 mps 639 mmHg 44%
    11:00 +25°C° 0.2 mm 1 mps 639 mmHg 42%
    12:00 +26°C° 0.2 mm 1 mps 639 mmHg 40%
    13:00 +25°C° 0.9 mm 1 mps 639 mmHg 44%
    14:00 +24°C° 0.9 mm 1 mps 638 mmHg 47%
    15:00 +24°C° 0.9 mm 1 mps 638 mmHg 50%
    16:00 +22°C° 1 mm 1 mps 637 mmHg 55%
    17:00 +21°C° 1 mm 1 mps 637 mmHg 61%
    18:00 +20°C° 1 mm 1 mps 636 mmHg 67%
    19:00 +19°C° 0.4 mm 1 mps 636 mmHg 71%
    20:00 +16°C° 0.4 mm 1 mps 636 mmHg 76%
    21:00 +15°C° 0.4 mm 1 mps 636 mmHg 81%
    22:00 +14°C° 0.3 mm 2 mps 636 mmHg 83%
    23:00 +14°C° 0.3 mm 2 mps 636 mmHg 85%

    24 August, Friday

    Time Temperature Precipitation Wind Pressure Humidity
    00:00 +14°C° 0.3 mm 2 mps 635 mmHg 87%
    01:00 +13°C° 0.1 mm 2 mps 635 mmHg 88%
    02:00 +13°C° 0.1 mm 2 mps 635 mmHg 89%
    03:00 +13°C° 0.1 mm 2 mps 635 mmHg 90%
    04:00 +13°C° 0 mm 2 mps 635 mmHg 89%
    05:00 +13°C° 0 mm 2 mps 635 mmHg 88%
    06:00 +13°C° 0 mm 2 mps 635 mmHg 88%
    07:00 +14°C° 0 mm 2 mps 636 mmHg 82%
    08:00 +16°C° 0 mm 2 mps 637 mmHg 75%
    09:00 +17°C° 0 mm 2 mps 637 mmHg 69%
    10:00 +18°C° 0.1 mm 2 mps 637 mmHg 67%
    11:00 +19°C° 0.1 mm 2 mps 637 mmHg 64%
    12:00 +19°C° 0.1 mm 3 mps 637 mmHg 61%
    13:00 +19°C° 0.3 mm 3 mps 637 mmHg 63%
    14:00 +18°C° 0.3 mm 3 mps 637 mmHg 66%
    15:00 +18°C° 0.3 mm 3 mps 636 mmHg 68%
    16:00 +16°C° 0.5 mm 3 mps 636 mmHg 73%
    17:00 +14°C° 0.5 mm 3 mps 636 mmHg 78%
    18:00 +13°C° 0.5 mm 3 mps 635 mmHg 83%
    19:00 +12°C° 0.4 mm 3 mps 635 mmHg 84%
    20:00 +11°C° 0.4 mm 3 mps 635 mmHg 86%
    21:00 +10°C° 0.4 mm 3 mps 636 mmHg 87%
    22:00 +10°C° 0.1 mm 3 mps 635 mmHg 87%
    23:00 +9°C° 0.1 mm 3 mps 635 mmHg 86%
    Show more